Date String (YYYY-MM-DD hh:mm:ss) UTC,Instrument flags,absolute air pressure of the measurement (hPa),sample flow rate (lpm),inlet stack bypass flow (lpm),air temperature of the measurement (°C),ambient temperature measured by the external sensor (°C),aerosol sample conditioner tube jacket temperature (°C),OPC LED temperature (°C),internal box temperature (°C),relative humidity of the measurement (%),span deviation,mass concentration of particles derived from Lorenz-Mie calculation of OPC scattering (μg/m³),mass concentration of particles derived from Lorenz-Mie calculation of OPC scattering (μg/m³),mass concentration of particles derived from Lorenz-Mie calculation of OPC scattering (μg/m³)
DateTimeUTC,F1_M11,P_M11,Q1_M11,Q2_M11,T1_M11,T2_M11,T3_M11,T4_M11,T5_M11,U1_M11,ZSPAN_M11,X0_M11,X2_M11,X1_M11
2024-01-30 10:00:00,SystemResetWarning,0835.2,5.00,000.00,022.5,021.3,000.0,030.9,023.9,16.4,0000.0,0006.35,0002.86,0002.35
2024-01-30 10:01:00,SystemResetWarning,0835.2,5.00,000.00,022.5,021.3,000.0,030.9,023.9,16.4,0000.0,0006.36,0002.83,0002.35
2024-01-30 10:02:00,SystemResetWarning,0835.2,5.00,000.00,022.5,021.2,000.0,030.8,023.9,16.4,0000.0,0005.47,0002.83,0002.37
2024-01-30 10:03:00,SystemResetWarning,0835.2,5.00,000.00,022.5,021.2,000.0,030.8,023.9,16.4,0000.0,0005.40,0002.87,0002.37
2024-01-30 10:04:00,SystemResetWarning,0835.2,5.00,000.00,022.5,021.2,000.0,030.8,023.9,16.4,0000.0,0005.49,0002.90,0002.38
2024-01-30 10:05:00,SystemResetWarning,0835.2,5.00,000.00,022.5,021.2,000.0,030.8,023.9,16.4,0000.0,0005.48,0002.91,0002.38
2024-01-30 10:06:00,SystemResetWarning,0835.3,5.00,000.00,022.5,021.2,000.0,030.8,023.8,16.4,0000.0,0005.83,0002.92,0002.38
2024-01-30 10:07:00,SystemResetWarning,0835.3,5.01,000.00,022.5,021.2,000.0,030.8,023.8,16.4,0000.0,0007.13,0002.91,0002.40
2024-01-30 10:08:00,SystemResetWarning,0835.2,5.00,000.00,022.5,021.2,000.0,030.8,023.8,16.5,0000.0,0007.69,0002.90,0002.41
2024-01-30 10:09:00,SystemResetWarning,0835.2,5.01,000.00,022.4,021.2,000.0,030.8,023.8,16.5,0000.0,0007.53,0002.93,0002.42
2024-01-30 10:10:00,SystemResetWarning,0835.3,5.00,000.00,022.4,021.2,000.0,030.8,023.8,16.5,0000.0,0007.89,0002.92,0002.43
2024-01-30 10:11:00,SystemResetWarning,0835.3,5.00,000.00,022.4,021.2,000.0,030.8,023.8,16.5,0000.0,0007.94,0002.94,0002.44
2024-01-30 10:12:00,SystemResetWarning,0835.2,5.00,000.00,022.4,021.2,000.0,030.8,023.8,16.5,0000.0,0007.93,0003.01,0002.46
2024-01-30 10:13:00,SystemResetWarning,0835.3,5.00,000.00,022.4,021.2,000.0,030.8,023.8,16.5,0000.0,0007.96,0003.03,0002.46
2024-01-30 10:14:00,SystemResetWarning,0835.3,5.00,000.00,022.4,021.2,000.0,030.8,023.8,16.4,0000.0,0007.93,0003.01,0002.47
2024-01-30 10:15:00,SystemResetWarning,0835.3,4.99,000.00,022.4,021.2,000.0,030.8,023.8,16.4,0000.0,0007.85,0002.96,0002.47
2024-01-30 10:16:00,SystemResetWarning,0835.3,4.99,000.00,022.4,021.2,000.0,030.8,023.8,16.4,0000.0,0007.80,0002.94,0002.47
2024-01-30 10:17:00,SystemResetWarning,0835.2,4.99,000.00,022.4,021.2,000.0,030.7,023.8,16.4,0000.0,0007.51,0002.89,0002.46
2024-01-30 10:18:00,SystemResetWarning,0835.2,5.01,000.00,022.4,021.2,000.0,030.7,023.8,16.4,0000.0,0006.25,0002.87,0002.44
2024-01-30 10:19:00,SystemResetWarning,0835.1,5.01,000.00,022.4,021.2,000.0,030.7,023.8,16.4,0000.0,0005.26,0002.88,0002.44
2024-01-30 10:20:00,SystemResetWarning,0835.1,5.00,000.00,022.4,021.1,000.0,030.7,023.8,16.4,0000.0,0005.78,0002.93,0002.45
2024-01-30 10:21:00,SystemResetWarning,0835.1,5.00,000.00,022.4,021.1,000.0,030.7,023.8,16.4,0000.0,0005.70,0002.93,0002.45
2024-01-30 10:22:00,SystemResetWarning,0835.1,4.99,000.00,022.4,021.1,000.0,030.7,023.8,16.4,0000.0,0005.17,0002.93,0002.46
2024-01-30 10:23:00,SystemResetWarning,0835.1,5.00,000.00,022.4,021.1,000.0,030.7,023.8,16.4,0000.0,0005.19,0002.90,0002.46
2024-01-30 10:24:00,SystemResetWarning,0835.2,5.00,000.00,022.4,021.1,000.0,030.7,023.7,16.5,0000.0,0005.79,0002.93,0002.49
2024-01-30 10:25:00,SystemResetWarning,0835.1,5.00,000.00,022.3,021.1,000.0,030.7,023.7,16.4,0000.0,0006.03,0002.93,0002.49
2024-01-30 10:26:00,SystemResetWarning,0835.2,5.00,000.00,022.3,021.1,000.0,030.7,023.7,16.4,0000.0,0006.98,0002.97,0002.51
2024-01-30 10:27:00,SystemResetWarning,0835.2,5.00,000.00,022.3,021.1,000.0,030.7,023.7,16.5,0000.0,0007.52,0002.98,0002.51
2024-01-30 10:28:00,SystemResetWarning,0835.1,5.00,000.00,022.3,021.1,000.0,030.7,023.7,16.5,0000.0,0007.48,0003.02,0002.54
2024-01-30 10:29:00,SystemResetWarning,0835.1,5.00,000.00,022.3,021.1,000.0,030.7,023.7,16.5,0000.0,0007.45,0003.07,0002.55
2024-01-30 10:30:00,SystemResetWarning,0835.1,5.01,000.00,022.3,021.0,000.0,030.7,023.7,16.6,0000.0,0007.45,0003.09,0002.57
2024-01-30 10:31:00,SystemResetWarning,0835.0,5.00,000.00,022.3,021.0,000.0,030.7,023.7,16.5,0000.0,0007.26,0003.05,0002.58
2024-01-30 10:32:00,SystemResetWarning,0835.1,5.00,000.00,022.3,021.0,000.0,030.6,023.7,16.5,0000.0,0007.04,0003.00,0002.57
2024-01-30 10:33:00,SystemResetWarning,0835.0,5.00,000.00,022.3,021.0,000.0,030.6,023.7,16.5,0000.0,0007.01,0003.01,0002.57
2024-01-30 10:34:00,SystemResetWarning,0835.0,5.00,000.00,022.3,021.0,000.0,030.6,023.7,16.5,0000.0,0007.08,0003.09,0002.59
2024-01-30 10:35:00,SystemResetWarning,0835.0,5.00,000.00,022.3,021.0,000.0,030.6,023.7,16.5,0000.0,0006.81,0003.05,0002.58
2024-01-30 10:36:00,SystemResetWarning,0835.0,5.00,000.00,022.3,021.0,000.0,030.6,023.6,16.6,0000.0,0006.50,0003.05,0002.56
2024-01-30 10:37:00,SystemResetWarning,0835.0,5.00,000.00,022.3,021.0,000.0,030.6,023.6,16.6,0000.0,0005.98,0003.02,0002.55
2024-01-30 10:38:00,SystemResetWarning,0835.0,5.00,000.00,022.3,021.0,000.0,030.6,023.6,16.7,0000.0,0004.96,0003.06,0002.55
2024-01-30 10:39:00,SystemResetWarning,0835.0,5.00,000.00,022.3,021.0,000.0,030.6,023.6,16.9,0000.0,0004.91,0003.04,0002.53
2024-01-30 10:40:00,SystemResetWarning,0835.0,5.00,000.00,022.2,021.0,000.0,030.6,023.6,17.0,0000.0,0004.86,0002.99,0002.52
2024-01-30 10:41:00,SystemResetWarning,0835.0,5.00,000.00,022.2,021.0,000.0,030.6,023.6,17.0,0000.0,0005.03,0003.02,0002.50
2024-01-30 10:42:00,SystemResetWarning,0834.9,5.00,000.00,022.2,020.9,000.0,030.6,023.6,17.0,0000.0,0005.12,0003.02,0002.49
2024-01-30 10:43:00,SystemResetWarning,0835.0,5.00,000.00,022.2,020.9,000.0,030.6,023.6,16.9,0000.0,0004.44,0003.04,0002.48
2024-01-30 10:44:00,SystemResetWarning,0835.0,5.00,000.00,022.2,021.0,000.0,030.6,023.6,17.0,0000.0,0004.54,0003.08,0002.48
2024-01-30 10:45:00,SystemResetWarning,0835.0,5.00,000.00,022.2,021.0,000.0,030.6,023.6,17.1,0000.0,0004.37,0003.02,0002.46
2024-01-30 10:46:00,SystemResetWarning,0835.0,5.00,000.00,022.2,020.9,000.0,030.6,023.6,17.1,0000.0,0004.45,0003.07,0002.45
2024-01-30 10:47:00,SystemResetWarning,0835.0,5.00,000.00,022.2,020.9,000.0,030.6,023.6,17.2,0000.0,0004.27,0003.10,0002.46
2024-01-30 10:48:00,SystemResetWarning,0834.9,5.00,000.00,022.2,020.9,000.0,030.5,023.6,17.3,0000.0,0004.43,0003.11,0002.45
2024-01-30 10:49:00,SystemResetWarning,0835.0,5.00,000.00,022.2,020.9,000.0,030.5,023.6,17.4,0000.0,0005.01,0003.12,0002.46
2024-01-30 10:50:00,SystemResetWarning,0835.3,4.99,000.00,022.2,021.0,000.0,030.5,023.6,17.3,0000.0,0005.47,0003.12,0002.47
2024-01-30 10:51:00,SystemResetWarning,0835.4,5.00,000.00,022.2,020.9,000.0,030.5,023.6,17.3,0000.0,0005.58,0003.14,0002.48
2024-01-30 10:52:00,SystemResetWarning,0835.0,5.00,000.00,022.2,020.9,000.0,030.5,023.5,17.3,0000.0,0005.54,0003.13,0002.48
2024-01-30 10:53:00,SystemResetWarning,0834.8,5.00,000.00,022.2,020.9,000.0,030.5,023.5,17.3,0000.0,0005.35,0003.10,0002.48
2024-01-30 10:54:00,SystemResetWarning,0834.8,5.00,000.00,022.2,020.9,000.0,030.5,023.5,17.4,0000.0,0006.58,0003.10,0002.49
2024-01-30 10:55:00,SystemResetWarning,0834.8,5.00,000.00,022.2,020.9,000.0,030.5,023.5,17.4,0000.0,0006.85,0003.09,0002.48
2024-01-30 10:56:00,SystemResetWarning,0834.8,5.00,000.00,022.1,020.9,000.0,030.5,023.5,17.3,0000.0,0006.92,0003.06,0002.47
2024-01-30 10:57:00,SystemResetWarning,0834.7,5.01,000.00,022.1,020.9,000.0,030.5,023.5,17.2,0000.0,0006.77,0003.01,0002.48
2024-01-30 10:58:00,SystemResetWarning,0834.7,4.99,000.00,022.1,020.9,000.0,030.5,023.5,17.1,0000.0,0006.70,0002.99,0002.48
2024-01-30 10:59:00,SystemResetWarning,0834.7,5.00,000.00,022.1,020.9,000.0,030.5,023.5,17.2,0000.0,0006.96,0003.00,0002.49
